Location: Crescent
(42.8242°N, 73.7329°W)
Time: 12:41:12
(UTC+00:00)

Explorer 7 - Pass Details

Date: 21 February 2026
Orbit: 430 x 540 km, 50.2° (Epoch: 17 March)

Event Time Altitude Azimuth Distance (km) Brightness Sun altitude
Rises 19:55:35 0° 266° (W) 2,417 10.8 24.6°
Reaches altitude 10° 19:57:48 10° 276° (W) 1,562 9.8 24.3°
Maximum altitude 20:01:03 34° 343° (NNW) 768 7.6 23.9°
Drops below altitude 10° 20:04:24 10° 51° (NE) 1,617 8.7 23.4°
Sets 20:06:44 0° 60° (ENE) 2,517 9.6 23.1°
